Wind_Speed
18 16 15 16 17 18 20 21 23 24 25 27 28 29 30 31 31 32 32 32 33 33 33 33 33 34 34 34 34 33 33 32 32 31 30 30 30 29 29 28 28 29 30
14 13 14 16 17 19 20 22 23 25 26 28 29 30 31 32 33 33 33 33 32 32 32 33 33 33 34 34 34 34 33 33 33 32 32 31 31 30 30 30 29 29 31
9 11 13 15 17 19 20 22 23 25 27 29 30 31 32 33 33 34 34 33 32 32 32 32 32 32 32 33 33 34 34 35 34 34 33 32 32 32 31 31 31 31 32
8 11 13 15 17 18 20 22 24 26 27 29 30 31 31 32 33 33 33 33 32 31 31 31 31 31 31 32 32 33 33 34 35 34 34 33 33 33 33 33 32 31 32
8 10 13 15 17 19 21 22 24 25 27 28 28 29 30 30 31 31 31 31 31 31 30 30 31 31 31 32 32 33 33 33 34 34 34 34 34 34 34 34 34 33 32
9 11 14 16 17 19 20 21 23 24 25 26 27 28 28 28 29 29 30 30 31 31 31 31 31 32 32 33 33 34 34 34 34 35 35 35 35 35 35 35 35 34 34
10 12 14 15 16 18 19 21 22 24 25 26 27 27 27 28 29 29 30 30 31 32 33 33 33 34 34 35 35 35 36 36 36 36 36 36 36 37 36 36 36 35 35
11 12 13 15 16 18 20 21 23 25 26 27 27 27 28 29 29 30 30 31 32 33 34 35 36 37 37 37 37 37 37 38 38 38 38 37 37 37 37 37 37 37 37
11 12 14 15 17 19 21 23 24 26 27 28 28 28 29 29 30 31 31 32 34 35 36 37 37 38 38 38 38 38 38 39 39 40 40 39 39 39 39 39 39 39 39
12 13 14 16 19 21 23 25 26 27 29 29 30 30 30 31 32 33 34 35 37 38 38 39 39 39 38 38 38 38 38 38 39 39 40 41 41 41 41 41 41 40 40
13 14 16 19 21 24 26 27 28 29 30 31 31 32 33 34 35 36 37 38 39 40 40 39 39 39 38 38 37 37 37 37 37 38 39 40 41 42 43 43 43 43 42
15 17 19 22 24 26 27 29 30 31 32 33 33 34 35 36 37 38 39 41 41 41 41 40 39 39 38 37 36 36 36 36 37 38 39 40 41 42 43 44 44 45 44
18 20 22 24 26 27 29 30 32 33 34 35 35 37 38 39 40 40 42 43 43 43 42 41 40 39 38 37 37 37 37 37 37 38 39 40 41 42 44 45 46 47 47
20 22 23 25 27 29 30 32 34 35 36 37 37 38 40 41 41 42 44 44 45 44 43 42 41 40 39 38 38 37 37 37 37 38 39 40 42 43 45 46 47 48 49
21 23 25 27 29 31 32 34 35 37 38 38 39 40 41 42 43 44 45 46 46 45 43 43 42 41 40 39 38 37 36 36 37 38 39 40 42 44 46 47 49 50 51
23 24 26 28 31 32 34 36 37 38 39 40 40 41 42 43 44 45 46 47 47 46 44 44 42 41 41 40 38 37 36 36 37 38 39 41 42 44 46 48 50 52 53
24 26 28 30 32 34 36 38 39 40 40 41 41 42 43 44 46 46 47 47 47 46 45 44 42 41 41 40 38 37 36 36 37 38 40 41 42 43 45 47 49 52 54
26 28 30 32 34 36 38 40 40 41 41 42 42 43 44 45 47 47 48 48 47 46 44 43 42 41 40 39 38 38 37 36 36 37 38 40 41 43 44 46 48 51 54
28 30 32 33 35 37 39 41 41 41 42 42 43 44 45 46 48 48 49 48 47 46 44 43 42 41 40 39 38 37 36 35 35 36 37 37 38 40 42 44 46 49 52
29 31 33 35 37 39 40 41 41 42 42 43 44 45 46 47 48 49 49 49 47 45 44 42 42 40 39 38 38 37 36 34 34 34 35 35 35 37 40 41 43 45 50
31 33 35 37 39 40 41 41 42 43 43 44 46 47 48 49 49 49 50 49 47 45 43 42 41 40 38 38 37 35 34 33 32 31 31 31 32 34 36 38 40 43 48
33 35 37 39 41 41 42 42 43 44 45 46 47 48 49 50 50 50 49 48 46 44 42 41 40 39 38 37 35 34 33 31 30 28 27 27 28 29 31 33 36 40 45
36 37 39 41 42 42 42 43 44 45 47 48 49 50 50 50 50 50 49 47 45 43 40 39 39 38 37 36 34 31 30 29 27 26 25 24 24 25 26 28 32 36 40
39 40 41 42 43 43 43 44 46 48 49 50 51 51 51 51 51 50 48 46 44 42 40 38 38 37 36 35 32 30 28 26 24 23 22 21 20 20 21 23 27 31 36
41 42 42 43 44 45 45 47 48 50 51 53 53 53 52 51 49 48 47 45 43 41 38 37 37 36 34 33 30 28 26 24 22 21 19 17 16 16 16 17 19 23 30
41 42 43 44 46 47 49 50 51 52 53 55 55 54 52 50 48 46 45 44 42 40 38 37 36 35 33 31 29 27 25 22 21 19 17 15 14 12 12 11 13 18 23
Wind_Direction
283 288 293 298 301 304 307 309 310 310 310 311 311 310 310 309 308 306 304 302 300 298 296 294 291 288 286 284 281 279 276 274 271 268 265 263 260 257 255 254 252 248 243
283 291 299 304 308 310 312 312 313 314 314 314 313 313 311 310 308 307 305 303 301 300 298 295 292 289 286 284 282 280 277 274 271 268 265 262 259 256 254 252 250 247 243
286 298 305 309 312 314 315 315 315 315 315 314 312 311 309 308 307 306 304 303 301 300 298 296 294 291 288 285 282 280 277 275 272 269 265 262 259 256 253 250 247 246 243
296 305 309 311 313 315 315 316 316 315 313 311 309 308 307 306 305 305 304 303 302 301 299 297 295 293 290 287 283 280 277 274 271 269 266 262 259 255 252 250 248 247 244
307 311 312 313 315 315 315 314 313 312 311 310 309 308 307 307 306 306 306 305 304 303 301 300 297 294 291 288 284 281 277 273 270 268 265 262 258 255 252 250 248 245 243
314 314 314 314 313 313 313 313 313 313 314 315 315 315 314 313 313 313 311 310 309 307 305 303 300 296 293 289 285 281 277 273 269 266 263 261 258 255 252 249 247 244 242
312 312 310 311 313 315 316 318 320 322 323 323 323 322 322 322 321 320 318 316 314 311 309 306 302 299 295 290 286 281 276 272 268 265 262 259 257 254 251 248 245 243 241
309 309 311 315 320 324 327 328 329 330 331 330 329 328 328 327 326 325 323 321 318 315 311 308 304 300 296 291 287 282 276 271 267 263 260 257 254 252 249 247 244 241 240
311 314 320 325 329 333 335 335 335 335 336 335 333 332 331 330 329 328 326 324 322 318 314 310 306 301 297 292 288 283 277 272 267 262 258 255 252 250 248 245 243 241 239
319 325 330 333 337 340 341 340 339 338 337 337 336 334 333 332 331 330 329 327 324 321 317 313 308 303 298 293 288 283 278 273 268 263 258 254 251 249 247 244 242 240 238
326 332 336 339 341 343 343 342 340 338 337 336 335 335 334 334 332 331 329 328 325 322 318 315 310 305 300 295 290 285 280 275 269 265 260 256 252 249 246 244 241 239 237
332 337 339 341 342 342 341 340 339 337 336 335 335 334 334 333 332 331 329 328 326 323 320 316 312 307 302 297 292 286 281 277 272 267 261 257 253 250 247 244 242 239 237
335 337 339 339 340 340 339 338 337 336 335 334 333 333 333 332 331 331 330 328 327 324 322 318 314 310 305 299 293 288 283 278 273 268 263 259 255 251 248 245 242 239 236
332 334 335 336 336 336 336 335 334 334 333 333 333 332 332 331 331 331 330 329 327 325 322 319 316 311 306 301 296 290 285 280 275 270 265 261 257 253 249 245 242 239 236
327 329 330 332 333 333 333 333 332 332 332 332 332 331 331 330 330 330 329 328 327 325 322 320 316 312 308 303 299 294 288 283 278 273 268 263 259 254 250 246 242 239 236
324 325 327 329 330 331 331 331 331 331 331 330 330 330 329 329 329 328 328 327 326 325 322 320 317 313 309 305 301 296 291 286 281 277 272 267 262 257 252 247 243 239 236
322 324 325 327 328 329 330 330 329 329 329 329 329 329 329 328 327 327 327 327 326 324 322 320 317 314 311 308 304 299 294 289 283 279 274 270 265 260 254 249 244 240 236
321 323 324 326 327 327 328 328 328 328 328 329 328 328 328 327 327 327 327 327 326 324 322 320 318 316 312 310 306 302 298 293 287 281 276 271 265 260 256 251 246 241 237
320 322 323 324 325 326 326 327 327 327 328 328 328 328 328 327 327 327 327 326 326 324 323 321 320 317 314 311 308 305 301 296 291 286 281 274 268 262 257 252 247 242 237
318 320 321 322 323 324 325 326 327 327 327 328 328 327 327 327 326 326 326 326 325 324 323 322 321 319 316 313 310 307 303 299 294 289 283 277 270 264 260 254 248 242 236
316 318 319 320 322 323 324 325 326 327 327 326 327 326 326 326 325 325 326 326 326 325 323 322 322 321 319 316 313 309 306 302 298 293 287 280 273 267 261 255 247 241 235
315 316 317 319 321 322 324 325 326 327 326 326 326 325 325 325 325 325 325 326 326 326 324 324 323 323 322 320 317 312 309 306 302 297 291 283 278 271 263 256 248 240 235
313 315 316 318 320 321 323 324 325 326 327 326 326 325 324 324 324 325 325 325 326 326 325 325 325 324 323 322 320 316 313 311 307 302 296 289 284 276 268 258 248 240 234
312 314 316 318 320 321 322 323 324 325 326 326 326 325 324 324 324 325 326 326 326 326 325 325 326 326 324 323 321 318 316 314 312 307 302 295 289 282 270 261 250 240 233
311 313 316 318 319 320 321 322 323 323 324 325 325 325 324 324 324 325 326 326 326 327 326 326 327 327 327 325 323 321 318 316 314 311 308 301 296 290 278 263 248 237 228
310 312 315 316 318 319 320 321 321 322 323 324 325 325 324 325 325 325 325 325 326 327 328 328 328 328 328 326 325 323 320 317 315 312 309 305 298 294 284 269 249 233 223
Height
5857 5857 5856 5855 5854 5853 5851 5850 5848 5846 5843 5841 5839 5836 5834 5831 5829 5826 5823 5821 5818 5816 5814 5812 5810 5808 5807 5806 5805 5805 5804 5804 5805 5806 5807 5808 5808 5810 5811 5813 5816 5817 5820
5853 5854 5853 5852 5851 5849 5848 5846 5843 5841 5839 5836 5833 5830 5828 5825 5822 5819 5816 5814 5811 5809 5806 5804 5802 5800 5798 5797 5796 5795 5795 5795 5796 5797 5798 5800 5801 5802 5803 5805 5808 5810 5812
5851 5851 5851 5849 5848 5846 5845 5842 5840 5837 5834 5831 5828 5825 5822 5818 5815 5812 5809 5806 5804 5801 5798 5796 5794 5792 5790 5788 5787 5786 5786 5786 5786 5787 5789 5790 5792 5793 5796 5797 5799 5801 5804
5850 5850 5848 5847 5846 5844 5842 5839 5836 5833 5830 5826 5823 5820 5816 5813 5809 5805 5802 5799 5796 5793 5791 5788 5786 5784 5782 5780 5779 5778 5777 5777 5777 5778 5779 5781 5782 5784 5787 5789 5791 5793 5795
5849 5848 5847 5845 5843 5841 5838 5836 5832 5829 5826 5822 5818 5814 5810 5806 5802 5799 5795 5791 5788 5785 5783 5780 5778 5776 5773 5772 5770 5769 5768 5768 5768 5768 5769 5771 5773 5774 5777 5779 5782 5784 5786
5848 5846 5845 5843 5841 5838 5835 5832 5828 5825 5820 5816 5812 5808 5804 5800 5796 5792 5788 5784 5780 5777 5774 5772 5769 5767 5765 5763 5761 5760 5759 5758 5758 5759 5760 5761 5763 5764 5767 5770 5772 5775 5778
5846 5845 5843 5841 5838 5835 5832 5828 5824 5819 5815 5810 5806 5802 5797 5793 5789 5785 5781 5777 5773 5769 5766 5763 5760 5757 5755 5753 5751 5749 5748 5748 5748 5748 5749 5750 5752 5754 5757 5760 5762 5765 5769
5845 5843 5841 5838 5835 5831 5827 5823 5818 5814 5809 5805 5800 5796 5791 5787 5783 5778 5774 5770 5766 5761 5757 5753 5750 5747 5744 5742 5740 5738 5737 5736 5737 5737 5738 5739 5741 5743 5746 5749 5752 5756 5759
5843 5840 5837 5834 5831 5827 5822 5818 5813 5809 5804 5800 5795 5790 5786 5781 5776 5772 5767 5763 5758 5753 5749 5744 5740 5736 5733 5730 5728 5726 5725 5724 5724 5725 5726 5728 5730 5732 5735 5738 5741 5746 5749
5840 5837 5833 5830 5826 5822 5817 5813 5808 5804 5799 5794 5790 5785 5780 5775 5770 5765 5760 5755 5750 5745 5740 5735 5730 5726 5722 5719 5716 5714 5713 5712 5712 5712 5714 5716 5718 5720 5723 5726 5730 5734 5738
5836 5832 5829 5825 5820 5816 5812 5807 5803 5799 5794 5789 5784 5779 5774 5769 5764 5758 5753 5747 5742 5736 5730 5725 5720 5715 5711 5707 5704 5702 5700 5700 5699 5699 5701 5702 5705 5707 5710 5714 5718 5722 5727
5831 5827 5823 5819 5815 5811 5807 5803 5798 5794 5789 5784 5779 5773 5768 5762 5757 5751 5745 5739 5733 5726 5721 5715 5709 5704 5700 5696 5693 5690 5688 5688 5687 5687 5688 5689 5691 5694 5697 5701 5705 5710 5715
5825 5822 5818 5814 5810 5806 5802 5798 5794 5789 5784 5778 5773 5767 5761 5755 5749 5743 5736 5730 5723 5717 5710 5705 5699 5694 5689 5685 5681 5679 5676 5675 5674 5674 5675 5676 5678 5680 5683 5687 5692 5696 5702
5820 5817 5813 5810 5806 5802 5798 5793 5788 5783 5778 5772 5766 5760 5754 5747 5741 5735 5728 5721 5714 5707 5701 5694 5688 5683 5678 5673 5669 5666 5664 5662 5661 5660 5661 5662 5663 5666 5669 5673 5677 5682 5688
5816 5813 5809 5805 5801 5797 5792 5788 5782 5777 5771 5765 5759 5753 5746 5740 5733 5726 5719 5712 5705 5697 5691 5684 5678 5672 5666 5661 5657 5654 5651 5649 5647 5646 5646 5647 5648 5650 5653 5657 5662 5667 5673
5812 5808 5804 5800 5796 5791 5787 5782 5776 5770 5764 5758 5752 5746 5739 5732 5725 5718 5711 5703 5695 5688 5680 5674 5667 5661 5655 5650 5645 5642 5639 5636 5634 5632 5631 5631 5632 5634 5637 5640 5645 5651 5657
5807 5803 5799 5795 5791 5786 5781 5775 5770 5764 5758 5751 5745 5738 5731 5724 5717 5709 5702 5694 5686 5678 5670 5663 5656 5650 5643 5638 5633 5629 5626 5623 5620 5618 5616 5615 5616 5617 5620 5623 5628 5634 5640
5801 5797 5793 5789 5785 5780 5774 5769 5763 5757 5751 5744 5738 5731 5724 5716 5708 5700 5692 5684 5676 5668 5660 5652 5645 5638 5632 5626 5621 5616 5612 5608 5605 5603 5601 5600 5599 5600 5602 5606 5611 5616 5623
5796 5792 5787 5783 5778 5773 5768 5762 5756 5750 5743 5737 5730 5723 5715 5708 5700 5691 5683 5675 5666 5658 5650 5642 5635 5628 5621 5614 5609 5604 5599 5595 5591 5588 5586 5584 5584 5584 5585 5589 5593 5599 5605
5790 5786 5781 5777 5772 5767 5761 5755 5749 5743 5736 5729 5722 5715 5707 5699 5691 5683 5674 5665 5656 5648 5640 5632 5624 5617 5610 5604 5598 5592 5587 5583 5579 5575 5572 5570 5569 5569 5569 5572 5576 5581 5587
5783 5779 5775 5770 5765 5760 5754 5747 5741 5735 5728 5721 5714 5706 5698 5690 5682 5673 5665 5656 5647 5639 5630 5623 5615 5607 5600 5593 5587 5581 5576 5571 5567 5562 5559 5556 5555 5554 5554 5556 5560 5564 5569
5777 5772 5768 5763 5757 5752 5746 5740 5733 5727 5720 5712 5705 5697 5689 5681 5673 5664 5655 5647 5638 5630 5621 5613 5605 5598 5590 5584 5577 5571 5565 5560 5556 5552 5548 5545 5543 5541 5541 5542 5545 5548 5553
5769 5765 5760 5755 5749 5743 5737 5731 5725 5718 5711 5704 5696 5688 5680 5671 5663 5654 5646 5637 5629 5621 5613 5605 5597 5589 5582 5575 5568 5562 5556 5551 5547 5542 5539 5535 5533 5531 5530 5530 5532 5535 5540
5761 5756 5752 5746 5741 5735 5729 5723 5716 5710 5702 5695 5687 5679 5670 5662 5653 5645 5637 5629 5621 5613 5605 5597 5590 5582 5574 5567 5561 5555 5549 5544 5539 5535 5531 5527 5524 5522 5520 5520 5521 5524 5529
5752 5748 5743 5737 5732 5726 5720 5714 5707 5701 5693 5686 5678 5669 5661 5652 5644 5635 5627 5620 5613 5605 5597 5590 5582 5575 5568 5561 5554 5548 5543 5538 5533 5529 5525 5521 5518 5516 5514 5513 5513 5515 5519
5743 5738 5733 5728 5723 5717 5711 5705 5698 5691 5684 5676 5668 5660 5651 5643 5635 5627 5619 5611 5604 5597 5589 5582 5575 5568 5561 5554 5548 5542 5537 5532 5528 5524 5520 5517 5514 5512 5510 5509 5509 5510 5513